[[{"header":{"parameterUnit":"m.s-1","parameterCategory":1,"la1":30.2992,"la2":30.254,"lo1":-89.0895,"lo2":-89.0443,"dy":0.0025,"dx":0.0025,"nx":19,"ny":19,"refTime":"2026-05-23T21:00:00:Z","depth":0,"parameterNumber":2,"parameterNumberName":"U-component_of_WINDS"},"data":[0,0,0,1.0218,1.0224,1.0576,1.0578,1.0998,1.1001,0,0,0,0,0,0,0,0,0,0,0,1.0088,1.009,1.0217,1.0225,1.0576,1.0578,1.0997,1.1001,0,0,0,0,0,0,0,0,0,0,0,1.0087,1.0089,1.0092,1.0226,1.0576,1.0578,1.0996,1.0744,0,0,0,0,0,0,0,0,0,0,1.0408,1.0262,1.0089,1.0092,1.0228,1.0575,1.0578,1.0732,1.0759,1.0824,0,1.0867,0,1.094,1.1027,1.1028,0,0,0,1.0246,1.0238,1.0355,1.0092,1.0231,1.0575,1.0424,1.0748,1.0779,1.0859,1.0873,1.089,1.0947,1.1029,1.1031,1.1313,1.1313,0,0,1.0227,1.0139,1.0334,1.0374,1.0309,1.0412,1.0434,1.0767,1.0779,1.0875,1.0901,1.0954,1.1032,1.1035,1.1313,1.1313,0,0,0,1.0157,1.0125,1.0235,1.0356,1.0421,1.0422,1.0447,1.0765,1.0807,1.0905,1.0959,1.1034,1.1039,1.1312,1.1313,1.1239,0,0,0,1.0146,1.0084,1.0225,1.0175,1.0413,1.0595,1.0436,1.0784,1.0824,1.0957,1.1034,1.1042,1.1312,1.1313,1.1241,1.122,0,0,0,1.0074,1.0076,1.0117,1.017,1.0317,1.0592,1.0655,1.0795,1.0856,1.1028,1.1043,1.1312,1.1313,1.1242,1.1223,1.1267,0,0,0,0.9974,1.0051,1.0114,1.0223,1.0313,1.0542,1.0653,1.0831,1.0969,1.1036,1.1312,1.1313,1.1243,1.1224,1.1268,1.1288,1.1287,0,0,1.0023,1.0054,1.0125,1.0192,1.0385,1.0495,1.0683,1.0897,1.0999,1.1204,1.1213,1.124,1.1223,1.1268,1.1319,1.1318,0,0,0,1.0111,1.016,1.0231,1.0355,1.0516,1.0655,1.0848,1.0929,1.1106,1.1083,1.1273,1.1265,1.1295,1.1309,1.1308,1.134,1.1315,1.1315,1.1315,1.0055,1.0174,1.03,1.0461,1.0582,1.078,1.0891,1.1034,1.1124,1.1167,1.1228,1.1244,1.1256,1.1256,1.1288,1.1249,1.1249,1.1249,1.1249,1.0138,1.0226,1.034,1.0501,1.063,1.0771,1.0967,1.1026,1.118,1.1207,1.124,1.1258,1.1251,1.1285,1.1245,1.1245,1.1246,1.1246,1.1247,1.0113,1.0176,1.0268,1.046,1.0597,1.0762,1.0902,1.1017,1.1127,1.1159,1.1237,1.1239,1.1254,1.1188,1.1188,1.1188,1.1188,1.1188,1.1189,1.005,1.0156,1.0256,1.0432,1.0528,1.0669,1.087,1.097,1.1111,1.1184,1.1186,1.1271,1.1227,1.1212,1.119,1.119,1.1189,1.1189,1.1189,1.0087,1.0096,1.025,1.0344,1.0563,1.0692,1.0836,1.1029,1.113,1.1196,1.1277,1.1225,1.1267,1.1269,1.1258,1.1249,1.1249,1.1249,1.1249,1.0065,1.0096,1.0279,1.0423,1.0578,1.0723,1.09,1.106,1.1228,1.1299,1.1318,1.1313,1.131,1.1355,1.1355,1.1346,1.136,1.136,1.136,1.0094,1.0146,1.0269,1.0426,1.0606,1.0759,1.093,1.1097,1.1292,1.1367,1.1357,1.1352,1.1347,1.1339,1.1411,1.1408,1.1395,0,0]},{"header":{"parameterUnit":"m.s-1","parameterCategory":1,"la1":30.2992,"la2":30.254,"lo1":-89.0895,"lo2":-89.0443,"dy":0.0025,"dx":0.0025,"nx":19,"ny":19,"refTime":"2026-05-23T21:00:00:Z","depth":0,"parameterNumber":3,"parameterNumberName":"V-component_of_WINDS"},"data":[0,0,0,3.3407,3.3408,3.3464,3.3464,3.3533,3.3533,0,0,0,0,0,0,0,0,0,0,0,3.3392,3.3392,3.3407,3.3408,3.3464,3.3464,3.3533,3.3533,0,0,0,0,0,0,0,0,0,0,0,3.3391,3.3392,3.3393,3.3408,3.3464,3.3464,3.3532,3.3491,0,0,0,0,0,0,0,0,0,0,3.3437,3.3425,3.3392,3.3393,3.3409,3.3464,3.3464,3.3489,3.3493,3.3507,0,3.3522,0,3.3529,3.3538,3.3538,0,0,0,3.3407,3.3421,3.3435,3.3393,3.3409,3.3464,3.3438,3.3491,3.3497,3.3513,3.3523,3.3525,3.353,3.3538,3.3539,3.3624,3.3624,0,0,3.3404,3.3402,3.3431,3.3438,3.3432,3.3437,3.344,3.3494,3.3504,3.3523,3.3527,3.3531,3.3539,3.3539,3.3623,3.3624,0,0,0,3.3396,3.34,3.3413,3.3436,3.3446,3.3438,3.3442,3.3502,3.3506,3.3528,3.3532,3.3539,3.354,3.3623,3.3624,3.3643,0,0,0,3.3394,3.3395,3.3411,3.3411,3.3445,3.3475,3.3449,3.3502,3.3509,3.3531,3.3539,3.3541,3.3623,3.3623,3.3642,3.3653,0,0,0,3.3387,3.3395,3.3403,3.3411,3.3435,3.3474,3.3482,3.3504,3.3511,3.3538,3.3541,3.3622,3.3623,3.364,3.3651,3.3672,0,0,0,3.338,3.3422,3.3404,3.3451,3.3434,3.3487,3.3481,3.3521,3.3547,3.354,3.3623,3.3624,3.364,3.3649,3.3671,3.369,3.3698,0,0,3.3432,3.3428,3.3456,3.3441,3.3496,3.3478,3.3535,3.3561,3.3565,3.3603,3.3605,3.3642,3.365,3.3672,3.3747,3.3753,0,0,0,3.3472,3.3492,3.3506,3.3531,3.3551,3.3567,3.3583,3.3592,3.3624,3.3585,3.3657,3.3662,3.3674,3.3683,3.3689,3.3699,3.3628,3.3628,3.3628,3.3544,3.3545,3.3589,3.3596,3.3619,3.3633,3.3651,3.3664,3.3661,3.3677,3.3688,3.3733,3.3744,3.3748,3.3758,3.3699,3.3699,3.3699,3.3699,3.3618,3.3645,3.3635,3.3675,3.3674,3.3707,3.372,3.3715,3.3744,3.3726,3.3737,3.3717,3.3755,3.3764,3.3701,3.3701,3.3701,3.37,3.37,3.3665,3.3677,3.3686,3.3717,3.374,3.3744,3.377,3.377,3.3769,3.378,3.379,3.3789,3.3787,3.3785,3.3785,3.3785,3.3785,3.3785,3.3785,3.3709,3.3718,3.3741,3.3761,3.3773,3.3789,3.38,3.3811,3.3824,3.3821,3.3821,3.3813,3.3759,3.3745,3.3788,3.3787,3.3787,3.3787,3.3787,3.3783,3.3765,3.38,3.3812,3.3833,3.3853,3.385,3.3872,3.3882,3.3894,3.3882,3.3843,3.384,3.3835,3.3823,3.3884,3.3884,3.3884,3.3884,3.3821,3.3818,3.3851,3.3869,3.3887,3.3886,3.3922,3.3928,3.3932,3.3937,3.3928,3.3912,3.3907,3.3906,3.39,3.3889,3.3965,3.3965,3.3965,3.3865,3.3862,3.3895,3.3897,3.3912,3.3923,3.3955,3.3974,3.3975,3.3968,3.394,3.3936,3.391,3.3903,3.3896,3.3887,3.3866,0,0]}]]